Theta_e
305 304 303 301 299 298 297 296 296 296 295 295 296 296 295 294 293 292 291 291 290 290 289 289 288 288 288 288 287 287 286 286 285 285 285 285 286 286 286 285 285 285 285
304 303 302 301 299 298 296 296 295 295 294 294 294 293 293 292 291 290 290 289 289 288 288 288 287 287 286 286 286 286 286 285 284 284 284 283 282 282 282 283 283 284 283
304 303 302 301 299 297 295 294 294 293 293 292 291 291 291 290 289 289 288 288 288 288 287 286 286 286 286 285 285 285 284 284 283 282 281 281 281 281 282 282 282 282 283
304 303 301 299 297 295 294 293 292 292 291 290 290 289 289 289 288 288 288 288 287 286 286 285 285 285 285 284 283 282 282 281 281 281 280 280 280 280 280 281 282 282 282
302 301 299 297 295 294 293 292 291 290 290 289 289 288 288 287 289 289 288 286 286 285 285 284 284 283 283 281 281 280 279 280 280 279 279 279 279 279 279 279 279 280 281
302 299 298 296 294 293 292 291 290 289 289 288 288 288 287 287 290 286 285 285 285 284 283 282 282 281 280 280 279 279 279 279 278 278 277 277 276 276 276 276 276 277 277
301 299 297 295 293 292 290 289 288 288 287 286 286 285 286 290 289 286 284 284 283 282 281 280 280 279 279 279 279 279 278 277 276 276 275 275 274 274 274 275 275 274 274
301 298 296 293 292 290 289 288 287 287 286 285 284 285 288 286 288 284 284 282 281 281 280 279 279 278 278 279 278 278 277 276 276 275 274 274 273 273 273 272 273 274 275
300 297 295 293 291 290 289 288 287 286 285 284 285 286 286 285 285 283 281 281 280 280 279 278 278 278 277 278 277 277 276 275 274 274 273 273 272 272 272 273 274 273 274
297 295 292 291 290 289 288 287 286 284 284 286 286 285 284 282 281 281 280 279 279 278 278 277 277 277 276 276 276 276 276 275 275 274 273 273 273 272 272 271 271 271 270
295 293 291 290 289 287 286 285 284 285 285 285 285 282 280 279 279 279 279 279 278 278 277 276 276 276 275 275 275 275 274 274 273 273 273 272 272 272 271 271 270 269 269
294 292 290 288 288 286 285 285 285 285 284 284 282 280 280 278 277 278 278 278 277 277 276 275 275 275 275 274 274 273 273 272 272 272 272 272 272 271 270 270 269 269 268
292 291 289 287 286 285 285 284 284 283 283 283 283 279 278 277 277 277 277 277 277 276 275 275 274 274 274 273 273 272 272 272 272 271 271 271 270 269 269 269 268 268 268
291 289 288 286 286 285 284 283 283 283 283 283 279 278 277 277 277 277 276 276 275 275 275 274 274 273 273 272 272 271 271 271 271 271 270 270 269 269 268 268 268 267 267
288 288 287 285 284 284 283 283 283 283 280 278 277 277 277 276 276 277 276 276 275 274 274 273 273 272 271 271 271 270 270 270 270 270 270 269 269 268 268 267 267 266 266
287 286 286 284 283 283 283 282 282 279 278 278 277 277 277 276 275 275 275 275 275 274 274 273 272 272 271 271 271 270 270 270 270 269 269 269 268 267 267 266 266 265 265
285 285 284 284 283 283 282 283 281 278 278 277 277 277 276 275 274 274 274 274 274 273 273 272 272 271 271 270 270 270 270 269 269 268 268 268 267 266 266 265 265 264 264
284 284 284 283 283 283 283 280 278 278 278 278 277 276 276 275 275 274 273 273 273 273 273 272 271 271 271 270 270 269 269 268 268 267 267 267 266 266 265 264 264 263 263
283 283 283 283 283 282 280 278 277 277 277 277 276 276 275 274 273 274 274 274 273 273 272 272 271 271 270 270 269 269 268 268 268 267 266 266 265 265 265 264 263 263 263
283 282 282 282 281 280 278 277 277 277 277 277 276 276 275 275 274 274 274 274 274 273 272 272 272 271 270 269 269 268 268 267 267 267 266 265 265 264 264 263 263 262 262
282 282 282 281 280 279 278 278 277 277 277 276 276 276 275 276 275 275 274 275 274 274 273 272 272 271 269 269 268 268 267 267 266 267 266 265 264 264 264 263 262 262 262
283 282 281 280 279 278 277 277 277 277 276 276 276 276 276 276 275 275 275 274 274 274 273 273 272 271 269 268 268 267 267 266 266 266 266 265 264 263 263 263 263 262 262
282 281 280 279 278 277 277 277 276 276 276 276 275 276 275 275 276 276 275 274 274 273 273 273 272 271 270 268 268 267 267 266 266 266 266 265 265 264 263 263 263 262 262
281 280 280 279 278 277 277 276 276 276 276 275 275 275 275 275 275 275 275 274 274 274 273 273 272 271 270 268 267 267 266 266 266 265 265 265 265 264 263 263 263 262 262
280 280 280 278 277 277 277 276 276 276 276 275 275 275 275 275 275 275 275 274 274 274 273 272 272 271 270 269 268 267 266 266 266 265 265 265 265 264 263 263 263 263 263
280 280 279 277 277 277 276 276 276 276 276 275 275 275 275 275 275 275 275 274 274 273 273 272 272 271 270 269 268 267 266 266 265 265 265 265 264 264 263 263 263 263 263
Wind_Speed
13 14 14 15 15 14 14 14 14 14 13 12 12 11 10 10 9 9 9 8 8 8 7 7 8 9 10 11 12 13 14 15 17 21 20 22 23 26 25 28 31 31 29
16 16 16 16 16 16 15 15 15 14 13 13 12 11 10 9 8 8 8 7 7 7 8 8 8 8 11 13 13 14 15 17 20 22 25 26 27 29 30 30 30 32 33
19 18 18 18 17 16 15 15 14 14 13 12 11 10 9 7 7 6 6 7 8 8 9 9 10 11 12 14 15 15 16 17 19 23 26 27 29 30 33 33 33 34 33
22 22 22 19 16 15 15 14 14 13 13 12 10 9 7 6 6 5 8 10 10 9 9 10 10 11 12 14 15 16 17 18 20 22 26 28 30 32 33 37 38 36 39
23 23 21 18 16 16 16 15 14 13 12 12 11 9 7 6 5 8 10 8 8 9 10 10 10 11 13 15 16 18 20 22 23 24 26 27 30 33 35 37 38 41 40
22 23 22 19 17 16 15 15 14 14 13 12 11 10 7 4 9 7 6 8 8 9 9 10 10 10 11 14 16 18 20 22 22 23 24 27 28 30 33 36 39 44 48
23 23 22 19 18 17 16 15 14 13 13 12 10 8 6 9 7 6 6 7 8 8 8 9 10 11 12 13 14 16 17 19 20 21 22 24 27 30 33 34 35 37 39
19 21 21 20 18 17 16 15 14 13 12 11 11 9 9 6 7 7 9 9 9 8 8 9 10 11 13 13 14 14 15 17 19 21 22 23 24 27 29 31 34 36 38
22 22 21 20 18 17 16 15 14 13 13 12 13 12 9 6 7 9 8 7 8 8 8 9 10 12 14 15 14 14 15 16 17 19 20 21 22 24 27 29 32 36 41
22 21 19 18 17 16 16 15 14 13 14 15 13 11 9 9 9 7 6 6 7 7 8 9 11 13 14 16 16 16 17 18 19 19 20 21 22 23 25 26 28 31 33
19 19 19 18 17 16 16 15 15 15 15 14 12 12 11 8 8 7 6 6 6 7 8 9 10 12 14 16 18 18 19 19 20 20 21 21 22 23 24 24 24 26 28
20 20 20 20 18 17 16 17 17 16 16 15 12 11 10 8 7 7 8 6 6 7 8 8 10 13 15 17 17 19 20 20 19 20 21 23 24 26 26 25 24 21 22
22 21 20 19 18 18 18 19 19 19 17 14 13 12 10 8 6 6 7 8 7 7 7 9 11 13 15 16 17 19 19 20 21 22 23 24 25 26 28 26 25 24 21
23 22 21 21 21 20 20 20 19 18 16 14 13 11 8 7 7 7 7 8 5 6 8 10 12 13 14 15 17 18 19 20 22 22 23 23 24 24 27 30 31 32 32
24 23 23 23 22 22 21 19 18 15 13 12 11 9 8 8 8 9 8 6 6 7 9 11 12 14 14 15 16 18 19 19 20 22 23 24 25 26 26 29 30 32 33
26 25 25 25 24 23 23 22 19 17 15 12 11 10 10 10 10 8 9 9 10 10 12 13 14 15 15 16 16 17 20 21 21 22 24 25 26 28 28 27 28 29 33
27 26 26 26 26 26 25 21 20 19 16 14 12 11 12 11 9 8 10 9 10 12 13 14 16 17 17 18 19 19 20 21 22 22 24 25 26 27 28 28 28 29 32
26 25 26 26 25 24 22 19 18 15 12 12 12 11 9 9 10 10 11 9 13 14 15 16 17 18 19 19 20 20 19 20 21 21 22 24 25 27 28 27 26 28 32
26 26 25 25 24 21 20 20 18 16 14 13 12 11 9 11 11 11 11 11 13 15 16 17 19 20 20 21 21 21 20 21 22 21 21 22 24 25 25 25 24 24 29
26 25 26 26 25 25 24 22 20 18 16 15 13 12 12 11 12 12 13 14 15 17 18 18 20 21 21 21 20 20 20 20 21 22 21 22 23 24 24 25 23 25 28
29 28 27 26 25 23 21 20 18 17 17 16 13 14 13 13 13 12 15 17 18 18 19 20 20 21 21 21 21 20 19 19 21 22 21 21 22 21 21 22 21 21 27
29 28 28 26 24 24 22 20 20 19 17 16 15 14 15 15 13 14 17 18 19 19 20 20 20 21 21 22 22 20 19 18 19 21 20 21 20 20 20 20 17 21 26
29 28 27 26 24 22 23 22 21 18 17 16 16 15 16 16 16 17 19 19 20 20 20 21 21 21 21 22 22 21 20 18 19 20 21 21 19 18 18 16 17 22 24
29 29 27 25 25 25 24 21 19 19 18 17 17 17 18 18 18 19 19 20 20 20 20 21 22 21 21 21 21 21 20 19 19 20 22 22 20 17 15 14 17 20 23
30 28 27 27 26 24 21 20 20 19 18 18 18 19 19 20 20 20 21 21 21 21 20 21 22 21 21 20 20 20 20 19 19 19 21 21 20 17 13 13 17 19 20
29 28 27 26 25 23 22 21 20 19 19 19 20 20 20 21 21 21 21 22 22 21 21 21 22 22 21 20 19 19 20 19 18 19 20 19 18 14 11 13 17 18 19
Wind_Direction
289 293 294 292 290 289 288 288 283 279 277 275 276 280 284 289 294 298 296 298 296 291 290 297 307 313 315 319 323 325 325 325 322 323 331 331 332 330 332 333 334 336 339
282 288 291 290 290 288 286 284 280 277 275 275 277 280 285 290 295 293 297 298 295 292 294 297 304 316 322 322 325 327 330 331 331 333 337 339 339 337 339 338 339 338 340
281 287 288 286 283 283 283 281 278 274 272 272 274 277 283 287 291 296 299 297 293 294 301 312 320 322 327 330 333 335 335 334 335 335 335 340 339 338 338 338 340 339 341
276 276 278 278 280 281 279 276 273 270 267 266 265 268 274 282 285 304 303 293 287 297 307 312 323 330 334 330 337 337 334 334 338 341 338 340 339 339 338 339 338 340 340
267 267 270 270 271 270 269 268 264 259 257 257 259 262 269 276 299 311 291 289 301 309 312 315 326 331 336 332 339 344 344 340 340 341 338 338 338 338 342 343 340 338 338
268 264 264 264 265 267 267 264 260 257 254 253 256 260 261 274 324 293 298 299 301 305 314 318 321 326 335 342 342 341 336 337 339 342 342 340 340 338 340 342 341 341 338
260 257 258 259 259 258 255 252 249 246 243 243 245 251 251 291 276 280 288 295 296 296 300 310 331 338 339 343 339 337 337 337 338 342 344 342 340 340 337 339 338 336 334
265 256 252 250 250 250 250 249 249 248 246 242 233 237 263 253 267 282 295 287 288 300 314 323 329 335 335 340 340 337 340 343 342 343 344 342 339 337 334 337 335 330 330
263 252 247 244 244 245 247 248 245 240 234 228 241 243 238 245 262 267 276 291 307 311 314 323 325 332 333 336 338 338 342 345 345 346 344 339 337 334 332 333 334 338 336
262 250 244 242 244 246 243 238 233 227 231 238 234 228 225 236 264 290 304 298 297 307 316 322 323 325 332 334 339 341 344 343 342 343 339 337 338 338 338 343 343 344 343
258 245 241 241 241 240 236 231 226 227 228 222 215 221 227 237 265 289 303 313 314 310 311 315 318 326 335 336 336 340 343 344 343 343 339 337 338 339 343 349 350 346 342
250 240 235 235 234 231 227 226 223 219 213 210 214 222 234 233 253 295 315 320 313 310 312 317 325 333 334 333 337 339 340 341 340 340 341 342 345 344 346 350 351 353 346
242 236 234 233 229 226 224 218 213 208 209 214 222 224 228 236 256 285 305 318 311 310 320 328 330 331 331 334 332 334 337 337 340 342 345 348 349 347 343 345 347 348 353
235 230 229 228 226 218 212 209 207 207 210 218 219 224 230 247 263 282 296 302 319 328 328 327 325 326 330 331 331 330 332 336 340 343 345 347 348 347 346 346 347 348 348
231 226 225 225 218 210 204 203 204 208 215 216 218 223 236 247 261 274 292 324 335 321 324 324 326 331 330 329 329 330 332 336 338 341 344 347 347 347 349 348 348 347 352
228 225 222 216 207 202 199 197 199 205 214 216 217 225 237 246 258 284 308 320 318 323 325 324 327 324 324 326 328 329 330 333 338 342 343 344 346 346 348 350 349 350 351
227 224 218 209 203 198 199 203 207 204 210 212 218 229 232 242 261 275 285 305 311 317 320 323 323 321 323 325 328 330 330 332 336 340 342 342 343 345 346 350 350 350 352
223 220 213 205 200 199 202 206 208 209 210 211 219 223 232 250 262 271 285 303 313 315 315 316 316 318 321 322 323 326 327 329 333 337 338 339 340 342 345 348 351 351 350
214 206 202 199 197 198 202 205 207 209 215 221 226 234 245 252 264 280 295 307 305 305 308 311 313 315 316 317 318 319 322 325 327 333 336 338 339 340 343 346 347 351 349
201 197 195 195 196 198 203 208 211 214 220 227 232 238 247 256 271 286 296 298 302 302 303 306 308 309 310 311 312 313 317 321 323 328 333 334 338 339 340 344 346 347 350
193 192 194 197 199 204 210 213 215 219 224 230 235 244 253 265 273 285 290 295 297 296 298 300 303 305 307 309 310 312 314 318 318 322 328 330 333 336 337 341 342 345 346
193 195 197 198 202 206 209 213 219 223 226 233 241 252 265 277 281 284 287 289 290 292 293 297 302 305 306 307 307 309 311 315 315 319 325 328 330 334 335 339 341 343 347
194 196 199 203 206 210 215 219 222 227 233 238 246 257 267 277 283 287 288 288 288 290 293 298 303 305 304 304 305 306 309 312 315 318 321 325 328 330 331 334 338 342 347
197 200 203 206 212 216 219 223 227 232 236 243 253 260 268 276 282 285 286 285 285 288 292 298 302 304 302 301 301 304 306 309 313 315 317 321 323 326 327 328 336 340 344
202 205 208 212 217 220 224 229 234 239 245 252 259 264 270 276 281 284 284 286 287 289 292 297 301 303 302 299 299 300 303 306 308 309 312 315 317 322 320 324 332 338 343
207 210 214 217 221 224 229 234 240 247 253 259 262 265 270 275 279 281 283 284 286 286 290 296 300 301 300 298 296 297 300 301 302 304 307 309 312 315 311 322 329 334 340